Flag for U.S.A. Weather past 2 weeks in Allentown, Pennsylvania, U.S.A.

Now
80 °F

Sunny.


Feels Like: 79 °F
Forecast: 49 / 78 °F
Wind: 14 mph from West

Location: Lehigh Valley International Airport

Current Time: Apr 18, 2015 at 4:14:46 PM

Latest Report: Apr 18, 2015 at 3:51 PM


Visibility: 10 mi

Pressure: 29.89 "Hg

Humidity: 24%

Dew point: 40 °F

Location of AllentownLocation

Historic Weather in Allentown — Graph

°F

Allentown temperature yesterday

Maximum temperature yesterday: 71 °F (at 3:51 PM)
Minimum temperature yesterday: 55 °F (at 5:51 AM)
Average temperature yesterday: 61 °F

Past Weeks' High & Low Weather Summary

 TemperatureHumidityPressure
High79 °F (Apr 18, 2:51 PM)100% (Apr 3, 10:54 PM)30.46 "Hg (Apr 3, 10:54 PM)
Low31 °F (Apr 12, 5:51 AM)16% (Apr 15, 3:51 PM)29.51 "Hg (Apr 4, 2:56 AM)
Average52 °F61%30.13 "Hg
* Reported Apr 3 2:00 PM — Apr 18 2:51 PM, Allentown, Weather by CustomWeather, © 2015

Note: Actual official high and low records may vary slightly from our data, if they occured in-between our weather recording intervals... More about our weather records

Advertising

Allentown weather history for previous 24 hours

 ConditionsComfort  
Time TempWeatherWind HumidityBarometerVisibility
2:51 PM
Sat, Apr 18
79 °FSunny.15 mph25%29.90 "Hg10 mi
1:51 PM78 °FSunny.7 mph28%29.92 "Hg10 mi
12:51 PM74 °FSunny.9 mph33%29.96 "Hg10 mi
11:51 AM73 °FSunny.9 mph36%29.98 "Hg10 mi
10:51 AM70 °FSunny.6 mph39%30.01 "Hg10 mi
9:51 AM66 °FSunny.6 mph54%30.02 "Hg10 mi
8:51 AM58 °FSunny.No wind78%30.03 "Hg10 mi
7:51 AM51 °FSunny.3 mph89%30.02 "Hg7 mi
6:59 AM45 °FFog.No wind100%30.02 "Hg2 mi
5:51 AM46 °FFog.No wind93%29.98 "Hg5 mi
4:57 AM45 °FFog.3 mph100%29.98 "Hg2 mi
3:51 AM47 °FFog.3 mph93%29.98 "Hg5 mi
2:51 AM51 °FClear.No wind89%29.98 "Hg10 mi
1:51 AM50 °FClear.3 mph89%29.98 "Hg9 mi
12:51 AM51 °FPassing clouds.No wind86%29.99 "Hg10 mi
11:51 PM
Fri, Apr 17
56 °FClear.3 mph81%29.98 "Hg10 mi
10:51 PM56 °FPassing clouds.3 mph81%29.97 "Hg10 mi
9:51 PM59 °FClear.No wind78%29.97 "Hg10 mi
8:51 PM62 °FPassing clouds.5 mph70%29.95 "Hg10 mi
7:51 PM65 °FSunny.3 mph66%29.94 "Hg10 mi
6:51 PM69 °FBroken clouds.5 mph59%29.93 "Hg10 mi
5:51 PM70 °FPartly sunny.6 mph59%29.93 "Hg10 mi
4:51 PM69 °FOvercast.9 mph59%29.93 "Hg10 mi
Weather by CustomWeather, © 2015

See weather overviewHow to use our weather pages